Theta_e
312 311 311 310 310 309 310 309 309 309 309 310 309 309 310 310 311 312 312 312 312 312 312 313 316 320 324 321 320 322 322 323
311 311 310 310 309 308 309 309 309 309 308 308 309 309 309 309 309 309 308 308 308 307 307 306 307 308 309 310 311 312 310 310
311 311 311 310 309 308 308 308 307 308 308 308 308 308 308 307 307 307 307 308 308 308 308 307 307 306 305 306 306 306 307 306
311 311 311 310 308 308 307 305 305 305 306 306 307 307 307 307 307 306 306 306 307 307 307 308 308 308 309 309 308 307 306 306
311 311 311 310 307 306 304 302 301 301 302 303 303 304 304 303 302 302 302 302 303 303 304 304 305 306 306 306 306 306 305 306
311 311 310 308 306 305 303 301 301 300 300 300 300 301 301 300 301 301 301 301 302 302 302 303 303 302 302 303 303 303 302 301
311 310 309 307 306 304 302 301 300 300 300 300 300 300 301 301 301 301 301 301 301 301 301 300 300 301 300 298 298 298 299 299
309 308 307 306 304 303 301 301 300 300 300 300 301 301 301 301 301 301 300 299 299 298 297 297 296 295 295 295 295 296 297 297
309 308 306 305 304 301 300 300 300 300 300 300 301 301 301 301 300 299 298 296 296 296 296 295 294 295 294 294 296 296 295 296
308 306 305 304 303 301 299 299 299 299 299 300 300 300 299 299 298 297 296 295 296 297 296 296 295 295 294 293 293 293 293 292
307 306 305 304 302 301 299 299 298 298 298 298 297 297 296 296 296 295 295 294 296 295 294 293 293 293 293 292 292 291 292 292
306 305 304 303 302 300 299 298 298 297 297 296 295 295 294 293 293 292 293 293 294 293 291 290 292 291 292 291 291 291 291 291
306 305 304 303 302 300 299 298 297 297 295 293 294 293 292 292 291 291 291 290 290 291 289 287 290 290 290 290 289 289 290 289
306 305 304 302 302 301 299 297 296 295 294 293 293 292 292 291 291 290 289 289 288 287 287 285 287 288 287 286 285 284 284 285
306 305 303 302 302 301 298 296 295 294 293 293 293 292 291 291 289 288 288 287 286 286 284 284 285 285 285 285 284 282 282 282
307 306 303 301 301 300 297 295 294 294 293 292 292 291 291 289 288 287 286 285 285 284 283 283 284 284 283 284 283 282 281 281
310 305 303 301 301 300 297 295 294 293 293 292 291 291 289 287 286 285 284 283 283 282 282 282 283 283 282 282 282 281 280 281
307 306 303 301 299 299 297 295 294 293 292 291 290 289 287 285 284 284 283 282 282 281 281 281 282 282 282 281 281 280 280 280
307 305 301 300 300 299 296 295 294 292 291 290 289 286 285 284 284 283 282 281 281 281 280 280 280 280 280 280 280 279 279 280
Wind_Speed
12 8 4 2 3 7 8 6 5 4 3 1 1 3 4 6 8 8 9 9 9 10 11 12 14 17 20 18 19 21 26 28
13 10 5 2 2 5 8 6 5 4 1 2 1 3 5 8 10 11 10 10 10 10 10 10 11 14 15 17 17 19 20 21
18 12 7 4 2 5 5 3 3 3 3 2 1 3 6 8 11 14 13 12 11 12 12 12 11 11 12 14 16 16 18 16
24 16 11 5 2 3 2 4 5 5 4 2 4 6 8 9 11 12 14 14 15 16 16 16 16 16 16 15 14 14 16 14
25 18 13 6 5 6 6 4 3 2 2 2 3 4 7 9 11 12 13 13 12 14 16 16 17 17 17 17 16 15 15 16
28 21 14 10 10 9 6 3 2 3 3 3 4 6 6 9 11 11 12 13 12 12 13 14 15 15 15 14 13 13 12 11
26 20 15 13 13 11 7 4 1 2 3 3 4 5 7 9 11 12 14 15 16 15 14 14 13 13 14 12 10 11 12 12
30 25 21 18 16 14 11 6 3 2 2 3 3 5 7 9 10 12 14 15 16 18 17 16 15 14 12 11 11 10 10 11
29 25 23 20 18 16 11 7 5 3 3 1 2 3 4 6 8 10 12 14 15 17 18 17 14 12 10 10 9 9 7 8
29 26 23 20 18 15 12 9 6 6 4 0 2 4 5 6 7 9 10 10 11 12 15 15 13 11 10 11 11 9 9 10
28 28 24 20 17 14 13 11 8 6 4 1 2 4 6 7 7 8 8 6 8 11 13 11 8 8 9 8 9 9 9 11
33 30 24 20 17 14 12 11 10 7 5 3 2 4 5 5 6 6 6 7 9 9 11 9 5 6 8 9 9 9 8 10
32 27 25 23 19 15 13 12 9 6 6 5 3 0 2 3 4 4 5 8 9 10 10 8 4 5 7 9 9 9 7 9
28 28 28 26 21 17 14 12 10 9 8 5 4 4 4 3 3 4 6 9 9 10 9 6 4 5 6 10 11 11 9 9
31 29 32 28 22 18 15 15 13 12 9 8 8 6 5 4 3 4 6 8 8 9 8 6 4 5 6 9 11 12 13 12
30 31 35 33 24 20 17 16 16 14 12 11 10 7 5 4 3 4 5 6 5 7 6 5 6 7 9 8 9 10 12 12
37 37 39 36 30 24 20 20 19 18 14 12 10 7 6 4 3 3 3 2 3 4 6 7 7 10 9 10 10 10 12 14
39 44 43 40 33 24 22 21 20 16 13 12 11 8 7 4 2 1 2 4 5 6 8 8 7 7 6 11 11 11 12 15
41 43 40 40 32 27 22 21 20 17 15 15 12 9 7 5 4 5 5 6 6 7 8 10 9 8 7 10 11 11 11 13
Wind_Direction
170 183 193 222 327 339 345 4 10 31 43 23 29 351 349 338 336 342 342 334 321 314 308 297 290 283 283 280 277 284 289 290
176 182 185 169 327 315 310 340 344 353 40 142 150 301 345 339 341 341 350 348 339 331 325 319 309 299 293 284 285 289 286 288
179 186 189 198 284 300 296 337 352 328 324 314 260 287 312 325 329 324 326 326 322 321 318 315 317 316 311 307 308 300 293 300
182 184 194 197 220 226 153 98 68 50 45 350 280 265 274 279 287 305 314 321 318 313 311 307 304 300 299 305 309 313 309 310
180 185 195 206 183 165 150 134 91 62 23 353 313 292 298 319 329 329 324 324 323 319 319 314 308 304 302 302 301 301 301 305
180 187 192 188 173 181 178 143 64 28 18 351 321 312 320 332 331 330 326 332 336 330 327 324 324 324 320 314 309 304 303 304
180 184 184 183 179 192 201 184 202 349 355 349 342 342 344 340 336 338 346 349 351 350 347 343 339 335 336 337 325 313 308 303
179 181 185 183 184 195 202 199 223 295 329 344 354 350 350 349 350 358 357 360 4 5 359 356 351 352 350 347 345 334 328 313
183 186 187 182 187 196 202 204 218 241 261 291 2 3 360 5 8 16 17 18 19 15 11 7 6 7 6 7 358 353 343 322
182 184 184 183 190 198 208 213 220 223 217 194 9 18 28 32 35 36 34 22 23 19 17 14 19 12 21 31 30 27 18 3
181 185 185 188 196 203 207 217 223 216 193 106 67 36 34 43 45 51 43 6 9 16 20 17 25 25 18 27 32 34 21 10
180 181 188 194 198 205 209 211 214 195 164 127 82 56 45 51 43 33 16 343 355 360 9 12 14 23 13 23 24 22 21 12
181 189 195 197 202 207 207 206 197 180 143 151 160 65 344 350 11 359 338 319 335 350 6 10 19 19 13 9 17 14 6 9
188 198 203 200 200 205 205 197 175 157 169 191 213 226 254 280 319 334 331 319 341 352 3 9 30 32 18 18 23 25 20 22
194 200 206 206 201 204 200 186 175 179 192 223 229 232 243 271 294 324 321 314 337 354 13 28 58 52 26 22 26 30 38 39
204 208 211 203 196 200 197 187 186 191 200 218 224 224 245 260 290 326 308 312 342 12 32 54 72 63 45 42 43 43 45 45
209 212 211 201 199 199 196 188 194 199 213 216 215 221 234 241 278 317 305 343 35 51 56 67 77 70 51 36 45 46 50 50
206 212 212 202 194 194 193 191 194 202 210 209 216 217 219 228 241 193 135 95 85 81 69 65 75 73 48 35 39 42 46 48
196 205 200 201 193 195 194 193 197 199 209 215 214 207 200 189 176 161 135 113 98 80 71 63 62 71 51 46 43 49 51 50